Weather History for KMXO - February, 2014

Change the Weather History Date:

Wednesday, February 12, 2014

  Actual Average Record
Temperature  
Mean Temperature 10 °F -  
Max Temperature 17 °F 33 °F 46 °F (2005)
Min Temperature 3 °F 17 °F -11 °F (1997)
Degree Days  
Heating Degree Days 55    
Moisture  
Dew Point 7 °F    
Average Humidity 77    
Maximum Humidity 93    
Minimum Humidity 61    
Precipitation  
Precipitation 0.00 in - - ()
Sea Level Pressure  
Sea Level Pressure 30.10 in    
Wind  
Wind Speed 8 mph (SSE)    
Max Wind Speed 14 mph    
Max Gust Speed -    
Visibility 8 miles    
Events Snow    
Averages and records for this station are not official NWS values.
T = Trace of Precipitation, MM = Missing Value Source: NWS Daily Summary

Daily Weather History Graph

Daily Weather History Graph

Search for Another Location

Airport or City:

Trip Planner

Search our weather history database for the weather conditions in past years. The results will help you decide how hot, cold, wet, or windy it might be!

Date:

Astronomy

Feb. 12, 2014 Rise Set
Actual Time 7:04 AM CST 5:33 PM CST
Civil Twilight 6:35 AM CST 6:02 PM CST
Nautical Twilight 6:03 AM CST 6:35 PM CST
Astronomical Twilight 5:30 AM CST 7:07 PM CST
Moon 3:46 PM CST (2/12) 5:22 AM CST (2/12)
Length of Visible Light 11h 26m
Length of Day
10h 28m
Waxing Gibbous, 95% of the Moon is Illuminated
Feb 12
Waxing Gibbous
Feb 14
Full
Feb 22
Last Quarter
Mar 1
New
Mar 8
First Quarter

Hourly Weather History & Observations

Time (CST) Temp. Windchill Dew Point Humidity Pressure Visibility Wind Dir Wind Speed Gust Speed Precip Events Conditions
12:15 AM 3.2 °F -9.1 °F -5.8 °F 66% 30.27 in 10.0 mi SE 6.9 mph - N/A   Overcast
12:35 AM 3.2 °F -10.3 °F -4.0 °F 72% 30.26 in 10.0 mi SSE 8.1 mph - N/A   Overcast
12:55 AM 5.0 °F -10.0 °F -4.0 °F 66% 30.25 in 10.0 mi South 10.4 mph - N/A   Overcast
1:15 AM 6.8 °F -8.6 °F -4.0 °F 61% 30.25 in 10.0 mi South 11.5 mph - N/A   Overcast
1:35 AM 6.8 °F -8.6 °F -4.0 °F 61% 30.24 in 10.0 mi SSE 11.5 mph - N/A   Overcast
1:55 AM 6.8 °F -7.8 °F -2.2 °F 67% 30.24 in 10.0 mi South 10.4 mph - N/A   Overcast
2:15 AM 6.8 °F -7.8 °F -2.2 °F 67% 30.23 in 10.0 mi South 10.4 mph - N/A   Overcast
2:35 AM 6.8 °F -8.6 °F -2.2 °F 67% 30.22 in 10.0 mi South 11.5 mph - N/A   Overcast
2:55 AM 8.6 °F -5.5 °F -2.2 °F 62% 30.21 in 10.0 mi South 10.4 mph - N/A   Overcast
3:15 AM 8.6 °F -5.5 °F -0.4 °F 67% 30.21 in 10.0 mi South 10.4 mph - N/A   Overcast
3:35 AM 8.6 °F -5.5 °F -0.4 °F 67% 30.20 in 10.0 mi SSE 10.4 mph - N/A   Overcast
3:55 AM 8.6 °F -6.3 °F -0.4 °F 67% 30.19 in 10.0 mi SSE 11.5 mph - N/A   Overcast
4:15 AM 8.6 °F -4.7 °F -0.4 °F 67% 30.19 in 10.0 mi South 9.2 mph - N/A   Overcast
4:35 AM 10.4 °F -3.3 °F -0.4 °F 62% 30.18 in 10.0 mi South 10.4 mph - N/A   Overcast
4:55 AM 10.4 °F -5.4 °F 1.4 °F 67% 30.18 in 10.0 mi South 13.8 mph - N/A   Overcast
5:15 AM 10.4 °F -4.1 °F 1.4 °F 67% 30.18 in 10.0 mi South 11.5 mph - N/A   Overcast
5:35 AM 10.4 °F -1.5 °F 1.4 °F 67% 30.18 in 10.0 mi South 8.1 mph - N/A   Overcast
5:55 AM 12.2 °F 0.7 °F 1.4 °F 62% 30.18 in 10.0 mi South 8.1 mph - N/A   Overcast
6:15 AM 12.2 °F -0.2 °F 1.4 °F 62% 30.17 in 10.0 mi South 9.2 mph - N/A   Overcast
6:35 AM 12.2 °F -1.0 °F 1.4 °F 62% 30.16 in 10.0 mi SSE 10.4 mph - N/A   Mostly Cloudy
6:55 AM 10.4 °F -4.1 °F 1.4 °F 67% 30.14 in 10.0 mi SSE 11.5 mph - N/A   Overcast
7:15 AM 12.2 °F -1.8 °F 3.2 °F 67% 30.14 in 10.0 mi SSE 11.5 mph - N/A   Mostly Cloudy
7:35 AM 12.2 °F -1.8 °F 3.2 °F 67% 30.14 in 10.0 mi SSE 11.5 mph - N/A   Overcast
7:55 AM 12.2 °F -1.8 °F 3.2 °F 67% 30.13 in 7.0 mi SSE 11.5 mph - N/A   Mostly Cloudy
8:15 AM 12.2 °F -0.2 °F 3.2 °F 67% 30.14 in 1.5 mi SSE 9.2 mph - N/A Snow Light Snow
8:35 AM 12.2 °F 4.3 °F 6.8 °F 79% 30.15 in 0.8 mi SSE 4.6 mph - N/A Snow Light Snow
8:55 AM 12.2 °F 0.7 °F 6.8 °F 79% 30.15 in 0.8 mi South 8.1 mph - N/A Snow Light Snow
9:15 AM 12.2 °F -0.2 °F 6.8 °F 79% 30.15 in 1.2 mi South 9.2 mph - N/A Snow Light Snow
9:35 AM 12.2 °F -0.2 °F 6.8 °F 79% 30.14 in 1.2 mi SSE 9.2 mph - N/A Snow Light Snow
9:55 AM 12.2 °F -1.0 °F 6.8 °F 79% 30.15 in 1.5 mi SSE 10.4 mph - N/A Snow Light Snow
10:15 AM 12.2 °F -1.0 °F 6.8 °F 79% 30.15 in 0.8 mi SSE 10.4 mph - N/A Snow Light Snow
10:35 AM 12.2 °F -0.2 °F 8.6 °F 85% 30.15 in 0.8 mi SSE 9.2 mph - N/A Snow Light Snow
10:55 AM 12.2 °F -1.0 °F 8.6 °F 85% 30.14 in 0.8 mi SSE 10.4 mph - N/A Snow Light Snow
11:15 AM 14.0 °F 2.0 °F 8.6 °F 79% 30.13 in 0.8 mi SSE 9.2 mph - N/A Snow Light Snow
11:35 AM 14.0 °F 2.0 °F 8.6 °F 79% 30.12 in 1.0 mi SSE 9.2 mph - N/A Snow Light Snow
11:55 AM 14.0 °F 2.9 °F 8.6 °F 79% 30.11 in 1.8 mi SSE 8.1 mph - N/A Snow Light Snow
12:15 PM 14.0 °F 3.9 °F 10.4 °F 86% 30.11 in 1.5 mi SSE 6.9 mph - N/A Snow Light Snow
12:35 PM 14.0 °F 3.9 °F 10.4 °F 86% 30.11 in 1.8 mi South 6.9 mph - N/A Snow Light Snow
12:55 PM 14.0 °F 5.1 °F 10.4 °F 86% 30.10 in 1.8 mi SSE 5.8 mph - N/A Snow Light Snow
1:15 PM 15.8 °F 6.1 °F 10.4 °F 79% 30.08 in 2.0 mi SSE 6.9 mph - N/A Snow Light Snow
1:35 PM 15.8 °F 6.1 °F 10.4 °F 79% 30.07 in 5.0 mi SSE 6.9 mph - N/A Snow Light Snow
1:55 PM 15.8 °F 10.2 °F 10.4 °F 79% 30.07 in 6.0 mi SE 3.5 mph - N/A   Haze
2:15 PM 15.8 °F 10.2 °F 10.4 °F 79% 30.06 in 7.0 mi SSE 3.5 mph - N/A   Overcast
2:35 PM 15.8 °F 8.6 °F 10.4 °F 79% 30.06 in 10.0 mi SE 4.6 mph - N/A   Overcast
2:55 PM 15.8 °F 8.6 °F 10.4 °F 79% 30.05 in 10.0 mi SSE 4.6 mph - N/A   Overcast
3:15 PM 15.8 °F - 12.2 °F 86% 30.05 in 7.0 mi Calm Calm - N/A   Overcast
3:35 PM 15.8 °F - 12.2 °F 86% 30.05 in 10.0 mi Calm Calm - N/A   Overcast
3:55 PM 15.8 °F - 12.2 °F 86% 30.05 in 10.0 mi Calm Calm - N/A   Overcast
4:15 PM 17.6 °F - 12.2 °F 79% 30.05 in 10.0 mi Calm Calm - N/A   Overcast
4:35 PM 17.6 °F - 12.2 °F 79% 30.06 in 10.0 mi Calm Calm - N/A   Overcast
4:55 PM 17.6 °F - 12.2 °F 79% 30.06 in 10.0 mi Calm Calm - N/A   Overcast
5:15 PM 17.6 °F - 12.2 °F 79% 30.06 in 10.0 mi Calm Calm - N/A   Overcast
5:35 PM 17.6 °F 10.7 °F 12.2 °F 79% 30.04 in 10.0 mi SE 4.6 mph - N/A   Overcast
5:55 PM 17.6 °F 10.7 °F 12.2 °F 79% 30.03 in 10.0 mi SE 4.6 mph - N/A   Overcast
6:15 PM 17.6 °F 12.3 °F 12.2 °F 79% 30.03 in 10.0 mi SE 3.5 mph - N/A   Overcast
6:35 PM 15.8 °F 7.2 °F 12.2 °F 86% 30.02 in 10.0 mi SE 5.8 mph - N/A   Overcast
6:55 PM 14.0 °F 8.2 °F 10.4 °F 86% 30.01 in 10.0 mi SE 3.5 mph - N/A   Partly Cloudy
7:15 PM 14.0 °F 6.5 °F 10.4 °F 86% 30.01 in 10.0 mi SE 4.6 mph - N/A   Clear
7:35 PM 10.4 °F - 6.8 °F 85% 30.01 in 10.0 mi Calm Calm - N/A   Partly Cloudy
7:55 PM 14.0 °F 5.1 °F 10.4 °F 86% 30.00 in 10.0 mi SE 5.8 mph - N/A   Mostly Cloudy
8:15 PM 12.2 °F 6.1 °F 8.6 °F 85% 30.00 in 10.0 mi SE 3.5 mph - N/A   Overcast
8:35 PM 12.2 °F - 8.6 °F 85% 30.00 in 10.0 mi Calm Calm - N/A   Overcast
8:55 PM 14.0 °F - 10.4 °F 86% 30.00 in 10.0 mi Calm Calm - N/A   Overcast
9:15 PM 14.0 °F - 10.4 °F 86% 30.01 in 10.0 mi Calm Calm - N/A   Overcast
9:35 PM 14.0 °F - 10.4 °F 86% 30.01 in 10.0 mi Calm Calm - N/A   Overcast
9:55 PM 14.0 °F - 10.4 °F 86% 30.00 in 9.0 mi Calm Calm - N/A   Overcast
10:15 PM 15.8 °F - 12.2 °F 86% 30.00 in 10.0 mi Calm Calm - N/A   Overcast
10:35 PM 15.8 °F 10.2 °F 12.2 °F 86% 29.98 in 10.0 mi SE 3.5 mph - N/A   Overcast
10:55 PM 15.8 °F 8.6 °F 14.0 °F 93% 29.97 in 10.0 mi SSE 4.6 mph - N/A   Overcast
11:15 PM 17.6 °F - 14.0 °F 86% 29.96 in 10.0 mi Calm Calm - N/A   Overcast
11:40 PM 17.6 °F 9.3 °F 14.0 °F 86% 29.94 in 10.0 mi SSE 5.8 mph - N/A   Overcast
11:55 PM 17.6 °F 8.2 °F 14.0 °F 86% 29.94 in 9.0 mi SSE 6.9 mph - N/A   Overcast